,,PA_Meas_PMT16A,,PR_Meas_QMR101_102,,RH_Meas_QMH101,,SR_Meas_QMS101,,TA_Meas_QMH101,,GenWind,,GenWind,
time,status,PA,status,PR,status,RH,status,SR,status,TA,status,DirAvg,status,SpdAvg,
2010-06-19, 00:00:04,VALID,919.232,VALID,0,VALID,96.0322,VALID,0,VALID,20.6569,VALID,59,VALID,0.628906,
2010-06-19, 00:01:04,VALID,919.236,VALID,0,VALID,96.0855,VALID,0,VALID,20.6569,VALID,59,VALID,0.739062,
2010-06-19, 00:02:04,VALID,919.24,VALID,0,VALID,96.1236,VALID,0,VALID,20.678,VALID,60,VALID,0.810156,
2010-06-19, 00:03:04,VALID,919.263,VALID,0,VALID,96.1541,VALID,0,VALID,20.6569,VALID,59,VALID,0.548047,
2010-06-19, 00:04:04,VALID,919.254,VALID,0,VALID,96.2228,VALID,0,VALID,20.6569,VALID,59,VALID,0.626172,
2010-06-19, 00:05:04,VALID,919.255,VALID,0,VALID,96.2456,VALID,0,VALID,20.678,VALID,59,VALID,0.769141,
2010-06-19, 00:06:04,VALID,919.239,VALID,0,VALID,96.3066,VALID,0,VALID,20.6764,VALID,60,VALID,0.676953,
2010-06-19, 00:07:04,VALID,919.259,VALID,0,VALID,96.3447,VALID,0,VALID,20.6975,VALID,60,VALID,0.991406,
2010-06-19, 00:08:04,VALID,919.273,VALID,0,VALID,96.3829,VALID,0,VALID,20.6975,VALID,60,VALID,0.652734,
2010-06-19, 00:09:04,VALID,919.279,VALID,0,VALID,96.4133,VALID,0,VALID,20.717,VALID,59,VALID,1.01406,
2010-06-19, 00:10:04,VALID,919.272,VALID,0,VALID,96.4591,VALID,0,VALID,20.6748,VALID,103,VALID,0.914453,
2010-06-19, 00:11:04,VALID,919.255,VALID,0,VALID,96.4591,VALID,0,VALID,20.6959,VALID,103,VALID,0.886719,
2010-06-19, 00:12:04,VALID,919.276,VALID,0,VALID,96.5048,VALID,0,VALID,20.717,VALID,103,VALID,0.717578,
2010-06-19, 00:13:04,VALID,919.273,VALID,0,VALID,96.5277,VALID,0,VALID,20.717,VALID,103,VALID,0.863281,
2010-06-19, 00:14:04,VALID,919.284,VALID,0,VALID,96.5582,VALID,0,VALID,20.717,VALID,103,VALID,0.746094,
2010-06-19, 00:15:04,VALID,919.236,VALID,0,VALID,96.5811,VALID,0,VALID,20.6959,VALID,104,VALID,0.883594,
2010-06-19, 00:16:04,VALID,919.227,VALID,0,VALID,96.5887,VALID,0,VALID,20.717,VALID,104,VALID,0.5375,
2010-06-19, 00:17:04,VALID,919.229,VALID,0,VALID,96.6115,VALID,0,VALID,20.7154,VALID,103,VALID,0.464844,
2010-06-19, 00:18:04,VALID,919.203,VALID,0,VALID,96.642,VALID,0,VALID,20.7154,VALID,104,VALID,0.559766,
2010-06-19, 00:19:04,VALID,919.209,VALID,0,VALID,96.6725,VALID,0,VALID,20.7349,VALID,104,VALID,0.379297,
2010-06-19, 00:20:04,VALID,919.173,VALID,0,VALID,96.6725,VALID,0,VALID,20.7755,VALID,103,VALID,0.246875,
2010-06-19, 00:21:04,VALID,919.179,VALID,0,VALID,96.6878,VALID,0,VALID,20.7755,VALID,104,VALID,0.349609,
2010-06-19, 00:22:04,VALID,919.175,VALID,0,VALID,96.6954,VALID,0,VALID,20.7755,VALID,104,VALID,0.174219,
2010-06-19, 00:23:04,VALID,919.164,VALID,0,VALID,96.7335,VALID,0,VALID,20.795,VALID,103,VALID,0.243359,
2010-06-19, 00:24:04,VALID,919.152,VALID,0,VALID,96.7335,VALID,0,VALID,20.8145,VALID,104,VALID,0.219141,
2010-06-19, 00:25:04,VALID,919.138,VALID,0,VALID,96.7488,VALID,0,VALID,20.834,VALID,103,VALID,0,
2010-06-19, 00:26:04,VALID,919.097,VALID,0,VALID,96.764,VALID,0,VALID,20.8535,VALID,103,VALID,0,
2010-06-19, 00:27:04,VALID,919.087,VALID,0,VALID,96.7335,VALID,0,VALID,20.834,VALID,103,VALID,0,
2010-06-19, 00:28:04,VALID,919.078,VALID,0,VALID,96.7259,VALID,0,VALID,20.8535,VALID,104,VALID,0.294922,
2010-06-19, 00:29:04,VALID,919.036,VALID,0,VALID,96.7411,VALID,0,VALID,20.8535,VALID,103,VALID,0.075,
2010-06-19, 00:30:04,VALID,918.992,VALID,0,VALID,96.764,VALID,0,VALID,20.873,VALID,104,VALID,0,
2010-06-19, 00:31:04,VALID,919.005,VALID,0,VALID,96.7411,VALID,0,VALID,20.8535,VALID,103,VALID,0.189063,
2010-06-19, 00:32:04,VALID,918.966,VALID,0,VALID,96.7183,VALID,0,VALID,20.873,VALID,104,VALID,0.0738281,
2010-06-19, 00:33:04,VALID,918.943,VALID,0,VALID,96.7107,VALID,0,VALID,20.8535,VALID,103,VALID,0.0773437,
2010-06-19, 00:34:04,VALID,918.91,VALID,0,VALID,96.7107,VALID,0,VALID,20.8535,VALID,104,VALID,0,
2010-06-19, 00:35:04,VALID,918.898,VALID,0,VALID,96.7335,VALID,0,VALID,20.873,VALID,104,VALID,0,
2010-06-19, 00:36:04,VALID,918.891,VALID,0,VALID,96.7107,VALID,0,VALID,20.8324,VALID,103,VALID,0.0867188,
2010-06-19, 00:37:04,VALID,918.896,VALID,0,VALID,96.7259,VALID,0,VALID,20.8535,VALID,103,VALID,0.110937,
2010-06-19, 00:38:04,VALID,918.862,VALID,0,VALID,96.7183,VALID,0,VALID,20.873,VALID,103,VALID,0,
2010-06-19, 00:39:04,VALID,918.839,VALID,0,VALID,96.7488,VALID,0,VALID,20.873,VALID,103,VALID,0,
2010-06-19, 00:40:04,VALID,918.85,VALID,0,VALID,96.6802,VALID,0,VALID,20.873,VALID,103,VALID,0.278906,
2010-06-19, 00:41:05,VALID,918.809,VALID,0,VALID,96.642,VALID,0,VALID,20.8145,VALID,104,VALID,0.21875,
2010-06-19, 00:42:05,VALID,918.808,VALID,0,VALID,96.5734,VALID,0,VALID,20.7544,VALID,103,VALID,0.144922,
2010-06-19, 00:43:05,VALID,918.804,VALID,0,VALID,96.5963,VALID,0,VALID,20.756,VALID,104,VALID,0.210156,
2010-06-19, 00:44:05,VALID,918.787,VALID,0,VALID,96.5277,VALID,0,VALID,20.6959,VALID,103,VALID,0.101172,
2010-06-19, 00:45:05,VALID,918.777,VALID,0,VALID,96.4591,VALID,0,VALID,20.639,VALID,103,VALID,0.216797,
2010-06-19, 00:46:05,VALID,918.774,VALID,0,VALID,96.4896,VALID,0,VALID,20.5984,VALID,103,VALID,0.508984,
2010-06-19, 00:47:05,VALID,918.775,VALID,0,VALID,96.4667,VALID,0,VALID,20.5789,VALID,103,VALID,0.765625,
2010-06-19, 00:48:05,VALID,918.771,VALID,0,VALID,96.5429,VALID,0,VALID,20.5999,VALID,104,VALID,0.767969,
2010-06-19, 00:49:05,VALID,918.759,VALID,0,VALID,96.5506,VALID,0,VALID,20.5999,VALID,103,VALID,0.582812,
2010-06-19, 00:50:05,VALID,918.734,VALID,0,VALID,96.4972,VALID,0,VALID,20.5204,VALID,104,VALID,0.707422,
2010-06-19, 00:51:05,VALID,918.711,VALID,0,VALID,96.5506,VALID,0,VALID,20.5399,VALID,104,VALID,0.782422,
2010-06-19, 00:52:05,VALID,918.721,VALID,0,VALID,96.5429,VALID,0,VALID,20.5009,VALID,103,VALID,0.791406,
2010-06-19, 00:53:05,VALID,918.691,VALID,0,VALID,96.5734,VALID,0,VALID,20.4813,VALID,103,VALID,0.756641,
2010-06-19, 00:54:05,VALID,918.697,VALID,0,VALID,96.6192,VALID,0,VALID,20.4813,VALID,103,VALID,0.660937,
2010-06-19, 00:55:05,VALID,918.681,VALID,0,VALID,96.6344,VALID,0,VALID,20.5024,VALID,104,VALID,0.441406,
2010-06-19, 00:56:05,VALID,918.659,VALID,0,VALID,96.6192,VALID,0,VALID,20.4423,VALID,104,VALID,0.371875,
2010-06-19, 00:57:05,VALID,918.691,VALID,0,VALID,96.6268,VALID,0,VALID,20.4634,VALID,104,VALID,0.381641,
2010-06-19, 00:58:05,VALID,918.684,VALID,0,VALID,96.5887,VALID,0,VALID,20.4228,VALID,103,VALID,0.276953,
2010-06-19, 00:59:05,VALID,918.683,VALID,0,VALID,96.6573,VALID,0,VALID,20.4033,VALID,104,VALID,0.392578,
2010-06-19, 01:00:05,VALID,918.714,VALID,0,VALID,96.7335,VALID,0,VALID,20.4033,VALID,103,VALID,0.266016,
2010-06-19, 01:01:05,VALID,918.705,VALID,0,VALID,96.7183,VALID,0,VALID,20.4244,VALID,104,VALID,0.446484,
2010-06-19, 01:02:05,VALID,918.69,VALID,0,VALID,96.7335,VALID,0,VALID,20.4033,VALID,104,VALID,0.494531,
2010-06-19, 01:03:05,VALID,918.671,VALID,0,VALID,96.764,VALID,0,VALID,20.4033,VALID,104,VALID,0.491016,
2010-06-19, 01:04:05,VALID,918.682,VALID,0,VALID,96.7793,VALID,0,VALID,20.3838,VALID,103,VALID,0.373828,
2010-06-19, 01:05:05,VALID,918.664,VALID,0,VALID,96.825,VALID,0,VALID,20.4244,VALID,104,VALID,0,
2010-06-19, 01:06:05,VALID,918.601,VALID,0,VALID,96.8403,VALID,0,VALID,20.4634,VALID,104,VALID,0.355078,
2010-06-19, 01:07:05,VALID,918.609,VALID,0,VALID,96.8479,VALID,0,VALID,20.4423,VALID,104,VALID,0.19375,
2010-06-19, 01:08:05,VALID,918.615,VALID,0,VALID,96.886,VALID,0,VALID,20.4634,VALID,103,VALID,0,
2010-06-19, 01:09:05,VALID,918.61,VALID,0,VALID,96.886,VALID,0,VALID,20.4634,VALID,103,VALID,0,
2010-06-19, 01:10:05,VALID,918.61,VALID,0,VALID,96.9165,VALID,0,VALID,20.4618,VALID,103,VALID,0,
2010-06-19, 01:11:05,VALID,918.59,VALID,0,VALID,96.9394,VALID,0,VALID,20.5009,VALID,103,VALID,0.247266,
2010-06-19, 01:12:05,VALID,918.577,VALID,0,VALID,96.9012,VALID,0,VALID,20.5009,VALID,103,VALID,0.300391,
2010-06-19, 01:13:05,VALID,918.576,VALID,0,VALID,96.886,VALID,0,VALID,20.4813,VALID,103,VALID,0.357812,
2010-06-19, 01:14:05,VALID,918.563,VALID,0,VALID,96.8784,VALID,0,VALID,20.4423,VALID,104,VALID,0.410547,
2010-06-19, 01:15:05,VALID,918.537,VALID,0,VALID,96.886,VALID,0,VALID,20.4423,VALID,104,VALID,0.241797,
2010-06-19, 01:16:05,VALID,918.534,VALID,0,VALID,96.9089,VALID,0,VALID,20.4439,VALID,104,VALID,0.208984,
2010-06-19, 01:17:05,VALID,918.502,VALID,0,VALID,96.9012,VALID,0,VALID,20.4228,VALID,103,VALID,0.165234,
2010-06-19, 01:18:05,VALID,918.514,VALID,0,VALID,96.9012,VALID,0,VALID,20.4033,VALID,104,VALID,0.226563,
2010-06-19, 01:19:05,VALID,918.488,VALID,0,VALID,96.9012,VALID,0,VALID,20.3838,VALID,104,VALID,0.346875,
2010-06-19, 01:20:05,VALID,918.428,VALID,0,VALID,96.886,VALID,0,VALID,20.3659,VALID,104,VALID,0.430078,
2010-06-19, 01:21:05,VALID,918.427,VALID,0,VALID,96.9012,VALID,0,VALID,20.3253,VALID,104,VALID,0.365625,
2010-06-19, 01:22:05,VALID,918.425,VALID,0,VALID,96.9317,VALID,0,VALID,20.3448,VALID,104,VALID,0.274609,
2010-06-19, 01:23:05,VALID,918.397,VALID,0,VALID,96.9317,VALID,0,VALID,20.3448,VALID,104,VALID,0.228516,
2010-06-19, 01:24:05,VALID,918.37,VALID,0,VALID,96.9546,VALID,0,VALID,20.3448,VALID,104,VALID,0.277344,
2010-06-19, 01:25:05,VALID,918.37,VALID,0,VALID,96.9775,VALID,0,VALID,20.3448,VALID,104,VALID,0.207422,
2010-06-19, 01:26:05,VALID,918.326,VALID,0,VALID,96.9927,VALID,0,VALID,20.3659,VALID,104,VALID,0.307422,
2010-06-19, 01:27:05,VALID,918.334,VALID,0,VALID,97.008,VALID,0,VALID,20.3643,VALID,103,VALID,0.346484,
2010-06-19, 01:28:05,VALID,918.323,VALID,0,VALID,97.0003,VALID,0,VALID,20.3643,VALID,104,VALID,0.55,
2010-06-19, 01:29:05,VALID,918.318,VALID,0,VALID,97.0461,VALID,0,VALID,20.4033,VALID,103,VALID,0.389453,
2010-06-19, 01:30:05,VALID,918.317,VALID,0,VALID,97.0385,VALID,0,VALID,20.4228,VALID,104,VALID,0.260938,
2010-06-19, 01:31:05,VALID,918.292,VALID,0,VALID,97.0461,VALID,0,VALID,20.4423,VALID,104,VALID,0.469141,
2010-06-19, 01:32:05,VALID,918.284,VALID,0,VALID,97.0232,VALID,0,VALID,20.4244,VALID,103,VALID,0.400781,
2010-06-19, 01:33:05,VALID,918.265,VALID,0,VALID,96.9927,VALID,0.107441,VALID,20.3838,VALID,104,VALID,0.174219,
2010-06-19, 01:34:05,VALID,918.269,VALID,0,VALID,97.0461,VALID,0,VALID,20.3838,VALID,104,VALID,0.353516,
2010-06-19, 01:35:05,VALID,918.263,VALID,0,VALID,97.0308,VALID,0,VALID,20.4228,VALID,104,VALID,0.224219,
2010-06-19, 01:36:05,VALID,918.241,VALID,0,VALID,97.0537,VALID,0,VALID,20.4228,VALID,103,VALID,0.348047,
2010-06-19, 01:37:05,VALID,918.239,VALID,0,VALID,97.069,VALID,0,VALID,20.4618,VALID,103,VALID,0.288281,
2010-06-19, 01:38:05,VALID,918.243,VALID,0,VALID,97.0613,VALID,0,VALID,20.5024,VALID,103,VALID,0.609375,
2010-06-19, 01:39:05,VALID,918.243,VALID,0,VALID,97.0766,VALID,0,VALID,20.4813,VALID,104,VALID,0.06875,
2010-06-19, 01:40:05,VALID,918.231,VALID,0,VALID,97.069,VALID,0,VALID,20.4813,VALID,103,VALID,0.167969,
2010-06-19, 01:41:05,VALID,918.235,VALID,0,VALID,97.0461,VALID,0,VALID,20.4813,VALID,103,VALID,0.409375,
2010-06-19, 01:42:05,VALID,918.232,VALID,0,VALID,97.0613,VALID,0,VALID,20.5009,VALID,104,VALID,0.782422,
2010-06-19, 01:43:05,VALID,918.208,VALID,0,VALID,97.0613,VALID,0,VALID,20.5009,VALID,120,VALID,0.757813,
2010-06-19, 01:44:05,VALID,918.17,VALID,0,VALID,97.0613,VALID,0,VALID,20.5204,VALID,126,VALID,0.905469,
2010-06-19, 01:45:05,VALID,918.15,VALID,0,VALID,97.0766,VALID,0,VALID,20.5204,VALID,127,VALID,0.696484,
2010-06-19, 01:46:05,VALID,918.15,VALID,0,VALID,97.069,VALID,0,VALID,20.5399,VALID,115,VALID,0.604688,
2010-06-19, 01:47:05,VALID,918.113,VALID,0,VALID,97.069,VALID,0.107441,VALID,20.5399,VALID,117,VALID,1.06484,
2010-06-19, 01:48:05,VALID,918.099,VALID,0,VALID,97.0918,VALID,0,VALID,20.5204,VALID,116,VALID,0.815234,
2010-06-19, 01:49:05,VALID,918.08,VALID,0,VALID,97.0918,VALID,0,VALID,20.5414,VALID,127,VALID,1.12695,
2010-06-19, 01:50:05,VALID,918.068,VALID,0,VALID,97.0994,VALID,0,VALID,20.5204,VALID,156,VALID,0.540234,
2010-06-19, 01:51:05,VALID,918.006,VALID,0,VALID,97.0918,VALID,0,VALID,20.5204,VALID,156,VALID,0.530859,
2010-06-19, 01:52:05,VALID,918.009,VALID,0,VALID,97.0918,VALID,0,VALID,20.5204,VALID,156,VALID,0.717969,
2010-06-19, 01:53:05,VALID,918.033,VALID,0,VALID,97.0766,VALID,0,VALID,20.5204,VALID,156,VALID,0.383203,
2010-06-19, 01:54:05,VALID,918.004,VALID,0,VALID,97.1071,VALID,0,VALID,20.5204,VALID,156,VALID,0.633594,
2010-06-19, 01:55:05,VALID,918.008,VALID,0,VALID,97.1147,VALID,0,VALID,20.5414,VALID,156,VALID,0.466406,
2010-06-19, 01:56:05,VALID,918.004,VALID,0,VALID,97.0994,VALID,0,VALID,20.5204,VALID,156,VALID,0.453906,
2010-06-19, 01:57:05,VALID,917.978,VALID,0,VALID,97.1223,VALID,0,VALID,20.5414,VALID,144,VALID,1.22695,
2010-06-19, 01:58:05,VALID,917.938,VALID,0,VALID,97.1147,VALID,0,VALID,20.5414,VALID,130,VALID,0.601172,
2010-06-19, 01:59:05,VALID,917.963,VALID,0,VALID,97.1223,VALID,0,VALID,20.5414,VALID,102,VALID,1.42148,
2010-06-19, 02:00:05,VALID,917.926,VALID,0,VALID,97.1071,VALID,0,VALID,20.5414,VALID,102,VALID,0.977734,
2010-06-19, 02:01:05,VALID,917.904,VALID,0,VALID,97.1452,VALID,0.107441,VALID,20.5609,VALID,102,VALID,0.387109,
2010-06-19, 02:02:05,VALID,917.882,VALID,0,VALID,97.1376,VALID,0,VALID,20.5609,VALID,102,VALID,0.813281,
2010-06-19, 02:03:05,VALID,917.88,VALID,0,VALID,97.1223,VALID,0,VALID,20.5609,VALID,102,VALID,0.788672,
2010-06-19, 02:04:05,VALID,917.862,VALID,0,VALID,97.1376,VALID,0,VALID,20.5204,VALID,102,VALID,0.721875,
2010-06-19, 02:05:05,VALID,917.826,VALID,0,VALID,97.1223,VALID,0,VALID,20.5204,VALID,102,VALID,0.382031,
2010-06-19, 02:06:05,VALID,917.796,VALID,0,VALID,97.1528,VALID,0,VALID,20.5609,VALID,102,VALID,0.590234,
2010-06-19, 02:07:05,VALID,917.799,VALID,0,VALID,97.1452,VALID,0,VALID,20.5609,VALID,102,VALID,0.421484,
2010-06-19, 02:08:05,VALID,917.773,VALID,0,VALID,97.1299,VALID,0,VALID,20.5414,VALID,102,VALID,0.722656,
2010-06-19, 02:09:05,VALID,917.74,VALID,0,VALID,97.1299,VALID,0,VALID,20.5219,VALID,102,VALID,0.590234,
2010-06-19, 02:10:05,VALID,917.72,VALID,0,VALID,97.1376,VALID,0,VALID,20.5219,VALID,102,VALID,0.625,
2010-06-19, 02:11:05,VALID,917.727,VALID,0,VALID,97.1299,VALID,0,VALID,20.5024,VALID,102,VALID,0.644531,
2010-06-19, 02:12:05,VALID,917.686,VALID,0,VALID,97.1376,VALID,0,VALID,20.4829,VALID,102,VALID,0.939453,
2010-06-19, 02:13:05,VALID,917.675,VALID,0,VALID,97.1604,VALID,0,VALID,20.5024,VALID,102,VALID,0.6875,
2010-06-19, 02:14:05,VALID,917.652,VALID,0,VALID,97.1528,VALID,0,VALID,20.5219,VALID,102,VALID,0.524609,
2010-06-19, 02:15:05,VALID,917.642,VALID,0,VALID,97.1681,VALID,0.107441,VALID,20.4993,VALID,102,VALID,0.569922,
2010-06-19, 02:16:05,VALID,917.594,VALID,0,VALID,97.1757,VALID,0.107441,VALID,20.5204,VALID,102,VALID,0.651953,
2010-06-19, 02:17:05,VALID,917.552,VALID,0,VALID,97.1452,VALID,0.107441,VALID,20.5009,VALID,102,VALID,0.601172,
2010-06-19, 02:18:05,VALID,917.569,VALID,0,VALID,97.1757,VALID,0.107441,VALID,20.4798,VALID,102,VALID,0.522266,
2010-06-19, 02:19:05,VALID,917.53,VALID,0,VALID,97.1757,VALID,0.107441,VALID,20.4798,VALID,103,VALID,0.655469,
2010-06-19, 02:20:05,VALID,917.554,VALID,0,VALID,97.1604,VALID,0.107441,VALID,20.4813,VALID,102,VALID,0.476563,
2010-06-19, 02:21:05,VALID,917.54,VALID,0,VALID,97.1757,VALID,0.107441,VALID,20.4813,VALID,103,VALID,0.224219,
2010-06-19, 02:22:05,VALID,917.516,VALID,0,VALID,97.1681,VALID,0.107441,VALID,20.4813,VALID,103,VALID,0.388672,
2010-06-19, 02:23:05,VALID,917.517,VALID,0,VALID,97.1833,VALID,0.107441,VALID,20.4813,VALID,103,VALID,0.550781,
2010-06-19, 02:24:05,VALID,917.463,VALID,0,VALID,97.1757,VALID,0.107441,VALID,20.4798,VALID,103,VALID,0.519922,
2010-06-19, 02:25:05,VALID,917.449,VALID,0,VALID,97.1909,VALID,0.107441,VALID,20.4993,VALID,102,VALID,0.358203,
2010-06-19, 02:26:05,VALID,917.429,VALID,0,VALID,97.1986,VALID,0,VALID,20.5009,VALID,102,VALID,0,
2010-06-19, 02:27:05,VALID,917.408,VALID,0,VALID,97.2062,VALID,0.107441,VALID,20.5204,VALID,102,VALID,0.302344,
2010-06-19, 02:28:05,VALID,917.394,VALID,0,VALID,97.1986,VALID,0.107441,VALID,20.5594,VALID,102,VALID,0.0285156,
2010-06-19, 02:29:05,VALID,917.413,VALID,0,VALID,97.2062,VALID,0.107441,VALID,20.5383,VALID,102,VALID,0.0449219,
2010-06-19, 02:30:05,VALID,917.393,VALID,0,VALID,97.1986,VALID,0,VALID,20.5804,VALID,102,VALID,0,
2010-06-19, 02:31:05,VALID,917.374,VALID,0,VALID,97.1986,VALID,0,VALID,20.5594,VALID,102,VALID,0,
2010-06-19, 02:32:05,VALID,917.345,VALID,0,VALID,97.2138,VALID,0,VALID,20.5399,VALID,102,VALID,0,
2010-06-19, 02:33:05,VALID,917.382,VALID,0,VALID,97.2138,VALID,0,VALID,20.5804,VALID,102,VALID,0,
2010-06-19, 02:34:05,VALID,917.353,VALID,0,VALID,97.2062,VALID,0,VALID,20.5594,VALID,102,VALID,0,
2010-06-19, 02:35:05,VALID,917.326,VALID,0,VALID,97.2214,VALID,0,VALID,20.6194,VALID,102,VALID,0,
2010-06-19, 02:36:05,VALID,917.308,VALID,0,VALID,97.2138,VALID,0,VALID,20.5984,VALID,102,VALID,0,
2010-06-19, 02:37:05,VALID,917.285,VALID,0,VALID,97.1986,VALID,0,VALID,20.5804,VALID,102,VALID,0.273828,
2010-06-19, 02:38:05,VALID,917.302,VALID,0,VALID,97.2062,VALID,0,VALID,20.5609,VALID,102,VALID,0.185937,
2010-06-19, 02:39:05,VALID,917.26,VALID,0,VALID,97.229,VALID,0,VALID,20.5414,VALID,102,VALID,0,
2010-06-19, 02:40:05,VALID,917.262,VALID,0,VALID,97.1833,VALID,0,VALID,20.5219,VALID,103,VALID,0.500781,
2010-06-19, 02:41:05,VALID,917.231,VALID,0,VALID,97.1833,VALID,0,VALID,20.4618,VALID,102,VALID,0.452734,
2010-06-19, 02:42:05,VALID,917.252,VALID,0,VALID,97.1909,VALID,0,VALID,20.4829,VALID,103,VALID,0.0984375,
2010-06-19, 02:43:05,VALID,917.22,VALID,0,VALID,97.2367,VALID,0,VALID,20.5024,VALID,103,VALID,0,
2010-06-19, 02:44:05,VALID,917.215,VALID,0,VALID,97.2138,VALID,0,VALID,20.4813,VALID,103,VALID,0.0105469,
2010-06-19, 02:45:05,VALID,917.194,VALID,0,VALID,97.229,VALID,0,VALID,20.5219,VALID,102,VALID,0.260547,
2010-06-19, 02:46:05,VALID,917.205,VALID,0,VALID,97.229,VALID,0,VALID,20.5399,VALID,103,VALID,0.505078,
2010-06-19, 02:47:05,VALID,917.208,VALID,0,VALID,97.229,VALID,0,VALID,20.5204,VALID,102,VALID,0.474219,
2010-06-19, 02:48:05,VALID,917.187,VALID,0,VALID,97.2443,VALID,0,VALID,20.5009,VALID,103,VALID,0.576563,
2010-06-19, 02:49:05,VALID,917.161,VALID,0,VALID,97.2138,VALID,0,VALID,20.4439,VALID,102,VALID,0.242578,
2010-06-19, 02:50:05,VALID,917.187,VALID,0,VALID,97.229,VALID,0,VALID,20.4634,VALID,102,VALID,0.0691406,
2010-06-19, 02:51:05,VALID,917.172,VALID,0,VALID,97.2138,VALID,0,VALID,20.4439,VALID,102,VALID,0.028125,
2010-06-19, 02:52:05,VALID,917.165,VALID,0,VALID,97.2138,VALID,0,VALID,20.4049,VALID,103,VALID,0.0257812,
2010-06-19, 02:53:05,VALID,917.158,VALID,0,VALID,97.2214,VALID,0,VALID,20.3643,VALID,102,VALID,0.172266,
2010-06-19, 02:54:05,VALID,917.158,VALID,0,VALID,97.229,VALID,0,VALID,20.3854,VALID,102,VALID,0,
2010-06-19, 02:55:05,VALID,917.161,VALID,0,VALID,97.2214,VALID,0,VALID,20.3854,VALID,102,VALID,0,
2010-06-19, 02:56:05,VALID,917.182,VALID,0,VALID,97.2519,VALID,0,VALID,20.3448,VALID,102,VALID,0,
2010-06-19, 02:57:05,VALID,917.17,VALID,0,VALID,97.2367,VALID,0,VALID,20.3659,VALID,102,VALID,0,
2010-06-19, 02:58:05,VALID,917.158,VALID,0,VALID,97.2519,VALID,0,VALID,20.3253,VALID,102,VALID,0.392188,
2010-06-19, 02:59:05,VALID,917.155,VALID,0,VALID,97.229,VALID,0,VALID,20.2863,VALID,102,VALID,0.348437,
2010-06-19, 03:00:05,VALID,917.149,VALID,0,VALID,97.2519,VALID,0,VALID,20.3074,VALID,102,VALID,0.386719,
2010-06-19, 03:01:05,VALID,917.15,VALID,0,VALID,97.2672,VALID,0,VALID,20.3253,VALID,102,VALID,0.455859,
2010-06-19, 03:02:05,VALID,917.128,VALID,0,VALID,97.2443,VALID,0,VALID,20.3253,VALID,102,VALID,0.431641,
2010-06-19, 03:03:05,VALID,917.173,VALID,0,VALID,97.2595,VALID,0,VALID,20.3269,VALID,102,VALID,0.467969,
2010-06-19, 03:04:05,VALID,917.161,VALID,0,VALID,97.2672,VALID,0,VALID,20.2863,VALID,102,VALID,0.40625,
2010-06-19, 03:05:05,VALID,917.187,VALID,0,VALID,97.2595,VALID,0,VALID,20.2879,VALID,102,VALID,0.313281,
2010-06-19, 03:06:05,VALID,917.185,VALID,0,VALID,97.2824,VALID,0,VALID,20.2473,VALID,102,VALID,0.475781,
2010-06-19, 03:07:05,VALID,917.189,VALID,0,VALID,97.2672,VALID,0,VALID,20.2083,VALID,102,VALID,0.460938,
2010-06-19, 03:08:05,VALID,917.175,VALID,0,VALID,97.2672,VALID,0,VALID,20.2083,VALID,102,VALID,0.465625,
2010-06-19, 03:09:05,VALID,917.198,VALID,0,VALID,97.2519,VALID,0,VALID,20.2098,VALID,102,VALID,0.554688,
2010-06-19, 03:10:05,VALID,917.196,VALID,0,VALID,97.29,VALID,0,VALID,20.1888,VALID,103,VALID,0.434766,
2010-06-19, 03:11:05,VALID,917.213,VALID,0,VALID,97.29,VALID,0,VALID,20.1888,VALID,102,VALID,0.761719,
2010-06-19, 03:12:05,VALID,917.183,VALID,0,VALID,97.2824,VALID,0,VALID,20.1693,VALID,102,VALID,0.716797,
2010-06-19, 03:13:05,VALID,917.184,VALID,0,VALID,97.2977,VALID,0,VALID,20.1903,VALID,102,VALID,0.413281,
2010-06-19, 03:14:05,VALID,917.212,VALID,0,VALID,97.2824,VALID,0,VALID,20.2098,VALID,102,VALID,0.677734,
2010-06-19, 03:15:05,VALID,917.224,VALID,0,VALID,97.2977,VALID,0,VALID,20.2083,VALID,103,VALID,0.826172,
2010-06-19, 03:16:05,VALID,917.248,VALID,0,VALID,97.3129,VALID,0,VALID,20.2293,VALID,103,VALID,0.636328,
2010-06-19, 03:17:05,VALID,917.232,VALID,0,VALID,97.2977,VALID,0,VALID,20.2278,VALID,103,VALID,0.775781,
2010-06-19, 03:18:05,VALID,917.243,VALID,0,VALID,97.3053,VALID,0,VALID,20.2879,VALID,103,VALID,0.64375,
2010-06-19, 03:19:05,VALID,917.274,VALID,0,VALID,97.3053,VALID,0,VALID,20.3269,VALID,116,VALID,0.662891,
2010-06-19, 03:20:05,VALID,917.281,VALID,0,VALID,97.3129,VALID,0,VALID,20.3464,VALID,116,VALID,0.736719,
2010-06-19, 03:21:05,VALID,917.283,VALID,0,VALID,97.3205,VALID,0,VALID,20.3659,VALID,116,VALID,0.442187,
2010-06-19, 03:22:05,VALID,917.279,VALID,0,VALID,97.3053,VALID,0,VALID,20.3659,VALID,116,VALID,0.854297,
2010-06-19, 03:23:05,VALID,917.259,VALID,0,VALID,97.3205,VALID,0,VALID,20.3448,VALID,116,VALID,0.448438,
2010-06-19, 03:24:05,VALID,917.264,VALID,0,VALID,97.3053,VALID,0,VALID,20.3854,VALID,120,VALID,0.851953,
2010-06-19, 03:25:05,VALID,917.32,VALID,0,VALID,97.2977,VALID,0,VALID,20.3659,VALID,122,VALID,0.675781,
2010-06-19, 03:26:04,VALID,917.285,VALID,0,VALID,97.3358,VALID,0,VALID,20.3854,VALID,122,VALID,0.78125,
2010-06-19, 03:27:04,VALID,917.315,VALID,0,VALID,97.2977,VALID,0,VALID,20.3448,VALID,126,VALID,0.996484,
2010-06-19, 03:28:04,VALID,917.32,VALID,0,VALID,97.2977,VALID,0,VALID,20.3659,VALID,126,VALID,0.780078,
2010-06-19, 03:29:04,VALID,917.305,VALID,0,VALID,97.3053,VALID,0,VALID,20.3464,VALID,127,VALID,0.436328,
2010-06-19, 03:30:04,VALID,917.269,VALID,0,VALID,97.3129,VALID,0,VALID,20.3253,VALID,127,VALID,0.955078,
2010-06-19, 03:31:04,VALID,917.3,VALID,0,VALID,97.3053,VALID,0,VALID,20.3253,VALID,127,VALID,0.663281,
2010-06-19, 03:32:04,VALID,917.309,VALID,0,VALID,97.3205,VALID,0,VALID,20.3269,VALID,127,VALID,0.617969,
2010-06-19, 03:33:04,VALID,917.309,VALID,0,VALID,97.3129,VALID,0,VALID,20.3269,VALID,127,VALID,0.835156,
2010-06-19, 03:34:04,VALID,917.306,VALID,0,VALID,97.3129,VALID,0,VALID,20.3269,VALID,127,VALID,0.447656,
2010-06-19, 03:35:04,VALID,917.302,VALID,0,VALID,97.3129,VALID,0,VALID,20.3269,VALID,127,VALID,0.684375,
2010-06-19, 03:36:04,VALID,917.303,VALID,0,VALID,97.3129,VALID,0,VALID,20.3058,VALID,127,VALID,0.457422,
2010-06-19, 03:37:04,VALID,917.317,VALID,0,VALID,97.2977,VALID,0,VALID,20.3074,VALID,127,VALID,0.966797,
2010-06-19, 03:38:04,VALID,917.277,VALID,0,VALID,97.3205,VALID,0,VALID,20.3269,VALID,128,VALID,0.796875,
2010-06-19, 03:39:04,VALID,917.294,VALID,0,VALID,97.3281,VALID,0,VALID,20.3074,VALID,128,VALID,0.571484,
2010-06-19, 03:40:04,VALID,917.294,VALID,0,VALID,97.3281,VALID,0,VALID,20.2863,VALID,128,VALID,0.643359,
2010-06-19, 03:41:04,VALID,917.274,VALID,0,VALID,97.3205,VALID,0,VALID,20.2879,VALID,127,VALID,0.602344,
2010-06-19, 03:42:04,VALID,917.265,VALID,0,VALID,97.3281,VALID,0,VALID,20.2879,VALID,128,VALID,0.819141,
2010-06-19, 03:43:04,VALID,917.247,VALID,0,VALID,97.3434,VALID,0,VALID,20.2879,VALID,128,VALID,0.748047,
2010-06-19, 03:44:04,VALID,917.213,VALID,0,VALID,97.3358,VALID,0,VALID,20.2879,VALID,128,VALID,0.632813,
2010-06-19, 03:45:04,VALID,917.216,VALID,0,VALID,97.3281,VALID,0,VALID,20.2668,VALID,128,VALID,0.676562,